CTV165 WARA-WIHH

Flight info

Callsign CTV165
Flight time 1h 8m
Altitude 36000
Route SBR T2 KALUT T6 KURUS
Aircraft A320/M-SDE3FGHIRWY/LB1

Departure

Time 2026-04-14 06:00
Airport Abdul Rachman Saleh Airport (WARA)

Arrival

Time 2026-04-14 07:08
Airport Halim Perdanakusuma International Airport (WIHH)
Time Latitude Longitude Altitude Speed Heading
2026-04-14 05:48 -7.93711 112.71221 1731 ft 0 kts 257°
2026-04-14 05:52 -7.93709 112.71229 1732 ft 2 kts 257°
2026-04-14 05:53 -7.93706 112.71243 1732 ft 2 kts 257°
2026-04-14 05:53 -7.93703 112.71259 1732 ft 2 kts 257°
2026-04-14 05:53 -7.93701 112.71268 1732 ft 1 kts 255°
2026-04-14 05:53 -7.93694 112.71276 1732 ft 2 kts 196°
2026-04-14 05:54 -7.93685 112.71278 1733 ft 1 kts 167°
2026-04-14 05:54 -7.93678 112.71275 1733 ft 0 kts 166°
2026-04-14 05:55 -7.93687 112.71278 1733 ft 0 kts 166°
2026-04-14 05:56 -7.93705 112.71282 1732 ft 4 kts 166°
2026-04-14 05:56 -7.93750 112.71294 1732 ft 8 kts 165°
2026-04-14 05:56 -7.93816 112.71308 1731 ft 7 kts 167°
2026-04-14 05:56 -7.93839 112.71343 1731 ft 7 kts 85°
2026-04-14 05:57 -7.93829 112.71390 1732 ft 6 kts 76°
2026-04-14 05:57 -7.93818 112.71440 1732 ft 7 kts 76°
2026-04-14 05:57 -7.93805 112.71494 1734 ft 7 kts 77°
2026-04-14 05:57 -7.93794 112.71544 1736 ft 6 kts 77°
2026-04-14 05:58 -7.93782 112.71594 1737 ft 7 kts 76°
2026-04-14 05:58 -7.93784 112.71642 1738 ft 6 kts 135°
2026-04-14 05:58 -7.93833 112.71658 1738 ft 8 kts 166°
2026-04-14 05:58 -7.93898 112.71677 1737 ft 10 kts 149°
2026-04-14 05:59 -7.93941 112.71710 1737 ft 6 kts 144°
2026-04-14 05:59 -7.93982 112.71713 1736 ft 5 kts 229°
2026-04-14 05:59 -7.93970 112.71692 1736 ft 1 kts 345°
2026-04-14 05:59 -7.93969 112.71692 1737 ft 0 kts 346°
2026-04-14 06:00 -7.93796 112.71649 1739 ft 62 kts 346°
2026-04-14 06:00 -7.93138 112.71489 1748 ft 128 kts 346°
2026-04-14 06:00 -7.92124 112.71239 1953 ft 159 kts 348°
2026-04-14 06:00 -7.91053 112.70953 2489 ft 162 kts 346°
2026-04-14 06:01 -7.89959 112.70644 2978 ft 166 kts 346°
2026-04-14 06:01 -7.88797 112.70305 3220 ft 180 kts 345°
2026-04-14 06:01 -7.87504 112.70039 3458 ft 196 kts
2026-04-14 06:01 -7.86116 112.70242 3750 ft 210 kts 14°
2026-04-14 06:02 -7.84623 112.70576 3968 ft 232 kts 14°
2026-04-14 06:02 -7.82966 112.70956 4335 ft 249 kts 14°
2026-04-14 06:02 -7.81231 112.71364 4692 ft 267 kts 14°
2026-04-14 06:02 -7.79383 112.71803 5240 ft 276 kts 14°
2026-04-14 06:03 -7.77519 112.72254 5945 ft 279 kts 15°
2026-04-14 06:03 -7.75620 112.72713 6682 ft 281 kts 14°
2026-04-14 06:03 -7.73693 112.73180 7392 ft 285 kts 14°
2026-04-14 06:04 -7.69757 112.74015 8731 ft 294 kts
2026-04-14 06:04 -7.67713 112.74209 9395 ft 298 kts
2026-04-14 06:04 -7.65639 112.74377 10071 ft 302 kts
2026-04-14 06:04 -7.63514 112.74558 10560 ft 312 kts
2026-04-14 06:05 -7.61285 112.74761 10877 ft 328 kts
2026-04-14 06:05 -7.58982 112.74981 11386 ft 336 kts
2026-04-14 06:05 -7.56645 112.75211 12056 ft 337 kts
2026-04-14 06:05 -7.54284 112.75446 12709 ft 339 kts
2026-04-14 06:06 -7.51928 112.75679 13313 ft 342 kts
2026-04-14 06:06 -7.49548 112.75917 13900 ft 344 kts
2026-04-14 06:06 -7.47178 112.76154 14460 ft 347 kts
2026-04-14 06:06 -7.44738 112.76399 15027 ft 349 kts
2026-04-14 06:07 -7.42304 112.76643 15575 ft 351 kts
2026-04-14 06:07 -7.39851 112.76747 16074 ft 354 kts 353°
2026-04-14 06:07 -7.37519 112.76017 16540 ft 358 kts 331°
2026-04-14 06:07 -7.35577 112.74430 17030 ft 360 kts 309°
2026-04-14 06:08 -7.34171 112.72377 17536 ft 361 kts 303°
2026-04-14 06:08 -7.32807 112.70240 17986 ft 364 kts 303°
2026-04-14 06:08 -7.31428 112.68084 18422 ft 368 kts 303°
2026-04-14 06:08 -7.30021 112.65899 18852 ft 371 kts 303°
2026-04-14 06:09 -7.28624 112.63739 19270 ft 373 kts 303°
2026-04-14 06:09 -7.27201 112.61545 19690 ft 376 kts 303°
2026-04-14 06:09 -7.25753 112.59317 20095 ft 379 kts 303°
2026-04-14 06:09 -7.24311 112.57104 20486 ft 382 kts 303°
2026-04-14 06:10 -7.22846 112.54855 20869 ft 385 kts 303°
2026-04-14 06:10 -7.21370 112.52589 21251 ft 388 kts 303°
2026-04-14 06:10 -7.19893 112.50326 21630 ft 390 kts 303°
2026-04-14 06:10 -7.18386 112.48017 22019 ft 392 kts 303°
2026-04-14 06:11 -7.16898 112.45736 22395 ft 394 kts 303°
2026-04-14 06:11 -7.15373 112.43401 22750 ft 397 kts 303°
2026-04-14 06:11 -7.13852 112.41073 23082 ft 400 kts 303°
2026-04-14 06:11 -7.12326 112.38736 23425 ft 403 kts 303°
2026-04-14 06:12 -7.10782 112.36370 23764 ft 405 kts 303°
2026-04-14 06:12 -7.09233 112.33997 24100 ft 408 kts 303°
2026-04-14 06:12 -7.07674 112.31610 24424 ft 411 kts 303°
2026-04-14 06:12 -7.06081 112.29170 24732 ft 414 kts 303°
2026-04-14 06:13 -7.04514 112.26769 25033 ft 416 kts 303°
2026-04-14 06:13 -7.02897 112.24294 25355 ft 419 kts 303°
2026-04-14 06:13 -7.01317 112.21877 25667 ft 421 kts 303°
2026-04-14 06:13 -6.99682 112.19374 25972 ft 423 kts 303°
2026-04-14 06:14 -6.98080 112.16924 26253 ft 426 kts 303°
2026-04-14 06:14 -6.96446 112.14425 26537 ft 428 kts 303°
2026-04-14 06:14 -6.94805 112.11914 26808 ft 431 kts 303°
2026-04-14 06:14 -6.93145 112.09375 27102 ft 433 kts 303°
2026-04-14 06:15 -6.91495 112.06850 27380 ft 435 kts 303°
2026-04-14 06:15 -6.89820 112.04290 27632 ft 438 kts 303°
2026-04-14 06:15 -6.88150 112.01736 27889 ft 440 kts 303°
2026-04-14 06:15 -6.86460 111.99152 28138 ft 443 kts 303°
2026-04-14 06:16 -6.84766 111.96561 28382 ft 445 kts 303°
2026-04-14 06:16 -6.83053 111.93945 28641 ft 447 kts 303°
2026-04-14 06:16 -6.81354 111.91349 28906 ft 449 kts 303°
2026-04-14 06:16 -6.79620 111.88699 29178 ft 451 kts 303°
2026-04-14 06:17 -6.77912 111.86089 29443 ft 453 kts 303°
2026-04-14 06:17 -6.76156 111.83406 29695 ft 455 kts 303°
2026-04-14 06:17 -6.74432 111.80774 29947 ft 457 kts 303°
2026-04-14 06:17 -6.72674 111.78088 30203 ft 458 kts 303°
2026-04-14 06:18 -6.70905 111.75386 30453 ft 460 kts 303°
2026-04-14 06:18 -6.69160 111.72720 30687 ft 462 kts 303°
2026-04-14 06:18 -6.67386 111.70010 30921 ft 464 kts 303°
2026-04-14 06:18 -6.65593 111.67273 31172 ft 466 kts 303°
2026-04-14 06:19 -6.63815 111.64561 31405 ft 467 kts 303°
2026-04-14 06:19 -6.62067 111.61799 31643 ft 469 kts 301°
2026-04-14 06:19 -6.60461 111.58941 31859 ft 471 kts 298°
2026-04-14 06:19 -6.58934 111.56027 32090 ft 473 kts 297°
2026-04-14 06:20 -6.57427 111.53114 32311 ft 474 kts 297°
2026-04-14 06:20 -6.55890 111.50138 32530 ft 475 kts 297°
2026-04-14 06:20 -6.54375 111.47209 32773 ft 476 kts 297°
2026-04-14 06:20 -6.52854 111.44274 33108 ft 475 kts 297°
2026-04-14 06:21 -6.51324 111.41325 33478 ft 473 kts 297°
2026-04-14 06:21 -6.49809 111.38406 33829 ft 472 kts 297°
2026-04-14 06:21 -6.48299 111.35499 34150 ft 471 kts 297°
2026-04-14 06:21 -6.46774 111.32561 34427 ft 471 kts 298°
2026-04-14 06:22 -6.45263 111.29654 34647 ft 472 kts 298°
2026-04-14 06:22 -6.43751 111.26743 34868 ft 472 kts 297°
2026-04-14 06:22 -6.42232 111.23819 35085 ft 473 kts 297°
2026-04-14 06:22 -6.40708 111.20890 35292 ft 473 kts 297°
2026-04-14 06:23 -6.39267 111.17925 35481 ft 473 kts 294°
2026-04-14 06:23 -6.38029 111.14856 35650 ft 474 kts 289°
2026-04-14 06:23 -6.37021 111.11713 35805 ft 475 kts 285°
2026-04-14 06:24 -6.35700 111.05204 35850 ft 476 kts 276°
2026-04-14 06:24 -6.35249 110.98549 35854 ft 476 kts 271°
2026-04-14 06:25 -6.34986 110.91921 35855 ft 476 kts 271°
2026-04-14 06:25 -6.34715 110.85323 35849 ft 476 kts 271°
2026-04-14 06:26 -6.34429 110.78702 35857 ft 476 kts 272°
2026-04-14 06:26 -6.34136 110.72046 35854 ft 475 kts 272°
2026-04-14 06:27 -6.33843 110.65438 35856 ft 476 kts 272°
2026-04-14 06:27 -6.33546 110.58787 35854 ft 476 kts 272°
2026-04-14 06:28 -6.33251 110.52159 35856 ft 476 kts 272°
2026-04-14 06:28 -6.32954 110.45537 35853 ft 476 kts 272°
2026-04-14 06:29 -6.32657 110.38921 35855 ft 475 kts 272°
2026-04-14 06:29 -6.32358 110.32282 35855 ft 476 kts 272°
2026-04-14 06:30 -6.32059 110.25649 35852 ft 476 kts 272°
2026-04-14 06:30 -6.31759 110.19021 35854 ft 476 kts 272°
2026-04-14 06:31 -6.31457 110.12387 35853 ft 476 kts 272°
2026-04-14 06:31 -6.31156 110.05776 35854 ft 476 kts 272°
2026-04-14 06:32 -6.30851 109.99110 35858 ft 476 kts 272°
2026-04-14 06:32 -6.30549 109.92506 35856 ft 476 kts 272°
2026-04-14 06:33 -6.30245 109.85866 35855 ft 476 kts 272°
2026-04-14 06:33 -6.29941 109.79256 35853 ft 476 kts 272°
2026-04-14 06:34 -6.29479 109.69260 35854 ft 476 kts 272°
2026-04-14 06:34 -6.29172 109.62652 35850 ft 476 kts 272°
2026-04-14 06:35 -6.28862 109.55994 35851 ft 476 kts 272°
2026-04-14 06:35 -6.28554 109.49378 35849 ft 477 kts 272°
2026-04-14 06:36 -6.28244 109.42733 35848 ft 476 kts 272°
2026-04-14 06:36 -6.27935 109.36118 35846 ft 476 kts 272°
2026-04-14 06:37 -6.27624 109.29502 35847 ft 476 kts 272°
2026-04-14 06:37 -6.27310 109.22845 35850 ft 476 kts 272°
2026-04-14 06:38 -6.26997 109.16228 35848 ft 476 kts 272°
2026-04-14 06:38 -6.26682 109.09600 35849 ft 477 kts 272°
2026-04-14 06:39 -6.26365 109.02928 35849 ft 477 kts 272°
2026-04-14 06:39 -6.26052 108.96325 35850 ft 476 kts 272°
2026-04-14 06:40 -6.25735 108.89692 35849 ft 476 kts 272°
2026-04-14 06:40 -6.25418 108.83048 35850 ft 477 kts 272°
2026-04-14 06:41 -6.25100 108.76421 35852 ft 476 kts 272°
2026-04-14 06:41 -6.24781 108.69800 35551 ft 478 kts 272°
2026-04-14 06:42 -6.24619 108.66443 34960 ft 477 kts 272°
2026-04-14 06:42 -6.24459 108.63141 34030 ft 479 kts 272°
2026-04-14 06:42 -6.24298 108.59802 32878 ft 486 kts 272°
2026-04-14 06:42 -6.24134 108.56409 31903 ft 488 kts 272°
2026-04-14 06:43 -6.23971 108.53062 31366 ft 481 kts 272°
2026-04-14 06:43 -6.23808 108.49709 30873 ft 474 kts 272°
2026-04-14 06:43 -6.23650 108.46446 30394 ft 468 kts 272°
2026-04-14 06:43 -6.23492 108.43222 29924 ft 461 kts 272°
2026-04-14 06:44 -6.23336 108.40018 29442 ft 456 kts 272°
2026-04-14 06:44 -6.23181 108.36847 28960 ft 450 kts 272°
2026-04-14 06:44 -6.23030 108.33729 28483 ft 445 kts 272°
2026-04-14 06:44 -6.22881 108.30667 28031 ft 440 kts 272°
2026-04-14 06:45 -6.22732 108.27594 27571 ft 435 kts 272°
2026-04-14 06:45 -6.22586 108.24588 27117 ft 430 kts 272°
2026-04-14 06:45 -6.22442 108.21641 26671 ft 425 kts 272°
2026-04-14 06:45 -6.22298 108.18697 26218 ft 421 kts 272°
2026-04-14 06:46 -6.22013 108.12868 25298 ft 413 kts 272°
2026-04-14 06:46 -6.21872 108.09988 24831 ft 410 kts 273°
2026-04-14 06:46 -6.21732 108.07131 24365 ft 406 kts 273°
2026-04-14 06:47 -6.21593 108.04303 23900 ft 403 kts 273°
2026-04-14 06:47 -6.21454 108.01485 23441 ft 400 kts 273°
2026-04-14 06:47 -6.21315 107.98711 22989 ft 396 kts 274°
2026-04-14 06:47 -6.21193 107.95942 22527 ft 394 kts 272°
2026-04-14 06:48 -6.21124 107.93201 22071 ft 391 kts 272°
2026-04-14 06:48 -6.21071 107.90494 21622 ft 388 kts 272°
2026-04-14 06:48 -6.21018 107.87817 21159 ft 386 kts 272°
2026-04-14 06:48 -6.20961 107.85111 20692 ft 384 kts 272°
2026-04-14 06:49 -6.20904 107.82458 20238 ft 382 kts 272°
2026-04-14 06:49 -6.20845 107.79791 19781 ft 380 kts 272°
2026-04-14 06:49 -6.20785 107.77174 19328 ft 378 kts 272°
2026-04-14 06:49 -6.20725 107.74542 18875 ft 376 kts 272°
2026-04-14 06:50 -6.20665 107.71915 18416 ft 375 kts 271°
2026-04-14 06:50 -6.20605 107.69308 17972 ft 372 kts 271°
2026-04-14 06:50 -6.20547 107.66740 17530 ft 370 kts 271°
2026-04-14 06:50 -6.20487 107.64160 17079 ft 369 kts 271°
2026-04-14 06:51 -6.20424 107.61584 16631 ft 366 kts 271°
2026-04-14 06:51 -6.20359 107.59029 16222 ft 364 kts 271°
2026-04-14 06:51 -6.20295 107.56520 15809 ft 361 kts 271°
2026-04-14 06:51 -6.20231 107.54016 15396 ft 359 kts 271°
2026-04-14 06:52 -6.20167 107.51505 14945 ft 358 kts 270°
2026-04-14 06:52 -6.20104 107.49023 14517 ft 356 kts 270°
2026-04-14 06:52 -6.20042 107.46542 14078 ft 353 kts 270°
2026-04-14 06:52 -6.19983 107.44096 13673 ft 351 kts 270°
2026-04-14 06:53 -6.19922 107.41663 13229 ft 349 kts 270°
2026-04-14 06:53 -6.19860 107.39244 12797 ft 346 kts 270°
2026-04-14 06:53 -6.19799 107.36826 12366 ft 344 kts 270°
2026-04-14 06:53 -6.19740 107.34460 11951 ft 341 kts 270°
2026-04-14 06:54 -6.19681 107.32102 11517 ft 338 kts 270°
2026-04-14 06:54 -6.19804 107.29736 11059 ft 334 kts 257°
2026-04-14 06:54 -6.20566 107.27562 10614 ft 329 kts 241°
2026-04-14 06:54 -6.21737 107.25623 10276 ft 322 kts 236°
2026-04-14 06:55 -6.22934 107.23771 10147 ft 306 kts 236°
2026-04-14 06:55 -6.24075 107.22006 10021 ft 291 kts 236°
2026-04-14 06:55 -6.25148 107.20335 9727 ft 287 kts 236°
2026-04-14 06:55 -6.26236 107.18626 9339 ft 286 kts 237°
2026-04-14 06:56 -6.27289 107.16964 8996 ft 284 kts 237°
2026-04-14 06:56 -6.28347 107.15291 8654 ft 283 kts 237°
2026-04-14 06:56 -6.29408 107.13611 8296 ft 282 kts 237°
2026-04-14 06:56 -6.30440 107.11954 7943 ft 281 kts 238°
2026-04-14 06:57 -6.31460 107.10288 7589 ft 275 kts 238°
2026-04-14 06:57 -6.32446 107.08677 7211 ft 267 kts 238°
2026-04-14 06:57 -6.33416 107.07091 6899 ft 263 kts 238°
2026-04-14 06:57 -6.34365 107.05542 6588 ft 261 kts 238°
2026-04-14 06:58 -6.35327 107.03972 6264 ft 260 kts 238°
2026-04-14 06:58 -6.36278 107.02423 5944 ft 260 kts 238°
2026-04-14 06:58 -6.37223 107.00886 5630 ft 259 kts 238°
2026-04-14 06:58 -6.38166 106.99347 5329 ft 258 kts 238°
2026-04-14 06:59 -6.39106 106.97813 5128 ft 252 kts 238°
2026-04-14 06:59 -6.39980 106.96343 5017 ft 242 kts 243°
2026-04-14 06:59 -6.40582 106.94797 5001 ft 236 kts 255°
2026-04-14 06:59 -6.40932 106.93170 4992 ft 236 kts 259°
2026-04-14 07:00 -6.41218 106.91555 5006 ft 235 kts 260°
2026-04-14 07:00 -6.41502 106.89941 5020 ft 235 kts 260°
2026-04-14 07:00 -6.41792 106.88327 5013 ft 233 kts 261°
2026-04-14 07:00 -6.42077 106.86767 4987 ft 223 kts 261°
2026-04-14 07:01 -6.42362 106.85218 4944 ft 226 kts 261°
2026-04-14 07:01 -6.42646 106.83671 4713 ft 221 kts 260°
2026-04-14 07:01 -6.42921 106.82185 4551 ft 212 kts 260°
2026-04-14 07:01 -6.43191 106.80729 4482 ft 212 kts 261°
2026-04-14 07:02 -6.43162 106.79267 4337 ft 211 kts 294°
2026-04-14 07:02 -6.42277 106.78125 4127 ft 209 kts 330°
2026-04-14 07:02 -6.40951 106.77509 3877 ft 209 kts 339°
2026-04-14 07:02 -6.39626 106.76957 3710 ft 197 kts 338°
2026-04-14 07:03 -6.38403 106.76430 3425 ft 189 kts 338°
2026-04-14 07:03 -6.37222 106.75911 3171 ft 180 kts 338°
2026-04-14 07:03 -6.36092 106.75407 2939 ft 172 kts 338°
2026-04-14 07:03 -6.35003 106.74916 2740 ft 171 kts 338°
2026-04-14 07:04 -6.33916 106.74442 2569 ft 169 kts 344°
2026-04-14 07:04 -6.32790 106.74442 2418 ft 159 kts 25°
2026-04-14 07:04 -6.32070 106.75160 2270 ft 139 kts 64°
2026-04-14 07:04 -6.31742 106.76048 2278 ft 134 kts 73°
2026-04-14 07:05 -6.31484 106.76949 2243 ft 133 kts 75°
2026-04-14 07:05 -6.31233 106.77847 2131 ft 133 kts 74°
2026-04-14 07:05 -6.30978 106.78748 1990 ft 133 kts 74°
2026-04-14 07:05 -6.30722 106.79640 1826 ft 133 kts 74°
2026-04-14 07:06 -6.30466 106.80524 1659 ft 132 kts 73°
2026-04-14 07:06 -6.30185 106.81403 1476 ft 132 kts 68°
2026-04-14 07:06 -6.29814 106.82250 1304 ft 132 kts 64°
2026-04-14 07:06 -6.29428 106.83090 1133 ft 131 kts 64°
2026-04-14 07:07 -6.29047 106.83916 956 ft 131 kts 64°
2026-04-14 07:07 -6.28663 106.84753 782 ft 131 kts 63°
2026-04-14 07:07 -6.28289 106.85585 598 ft 130 kts 63°
2026-04-14 07:07 -6.27904 106.86404 439 ft 130 kts 62°
2026-04-14 07:08 -6.27527 106.87233 276 ft 129 kts 62°
2026-04-14 07:08 -6.27150 106.88051 102 ft 127 kts 62°
2026-04-14 07:08 -6.26818 106.88761 90 ft 91 kts 65°
2026-04-14 07:08 -6.26636 106.89163 90 ft 31 kts 64°
2026-04-14 07:09 -6.26602 106.89257 91 ft 9 kts 103°
2026-04-14 07:09 -6.26650 106.89300 92 ft 9 kts 154°
2026-04-14 07:09 -6.26710 106.89328 93 ft 9 kts 155°
2026-04-14 07:09 -6.26732 106.89374 95 ft 7 kts 78°
2026-04-14 07:10 -6.26706 106.89430 96 ft 10 kts 66°
2026-04-14 07:10 -6.26670 106.89507 96 ft 13 kts 65°
2026-04-14 07:10 -6.26628 106.89598 98 ft 14 kts 65°
2026-04-14 07:10 -6.26582 106.89653 97 ft 10 kts 352°
2026-04-14 07:11 -6.26508 106.89622 96 ft 12 kts 336°
2026-04-14 07:11 -6.26458 106.89571 95 ft 10 kts 275°
2026-04-14 07:11 -6.26483 106.89495 95 ft 11 kts 246°
2026-04-14 07:11 -6.26519 106.89417 94 ft 13 kts 245°
2026-04-14 07:12 -6.26562 106.89322 92 ft 15 kts 245°
2026-04-14 07:12 -6.26564 106.89211 90 ft 17 kts 290°
2026-04-14 07:12 -6.26519 106.89090 88 ft 19 kts 290°
2026-04-14 07:12 -6.26499 106.88988 87 ft 14 kts 255°
2026-04-14 07:13 -6.26537 106.88900 89 ft 13 kts 245°
2026-04-14 07:13 -6.26575 106.88818 90 ft 13 kts 245°
2026-04-14 07:13 -6.26613 106.88734 90 ft 12 kts 246°
2026-04-14 07:13 -6.26645 106.88663 90 ft 9 kts 246°
2026-04-14 07:14 -6.26655 106.88638 90 ft 2 kts 266°
2026-04-14 07:14 -6.26648 106.88625 91 ft 1 kts 316°
2026-04-14 07:14 -6.26635 106.88617 91 ft 2 kts 334°
2026-04-14 07:14 -6.26618 106.88609 91 ft 1 kts 334°
2026-04-14 07:15 -6.26614 106.88607 91 ft 0 kts 335°
2026-04-14 07:15 -6.26613 106.88607 91 ft 0 kts 334°